Tracking 25612 objects as of 20-May-2022
HD Live streaming from Space Station
objects crossing your sky now

SATCOM 3 DEB

Track SATCOM 3 DEB now!


NORAD ID: 49955
Int'l Code: 1979-101Z
Perigee: 8,373.7 km
Apogee: 35,601.7 km
Inclination: 8.3 °
Period: 792.1 minutes
Semi major axis: 28358 km
RCS: Unknown
Launch date: December 7, 1979
Source: United States (US)
Launch site: AIR FORCE EASTERN TEST RANGE (AFETR)

Note: This is SATELLITE DEBRIS
aabbcc
Your satellite tracking list
Your tracking list is empty




NASA's NSSDC Master Catalog

Two Line Element Set (TLE):
1 49955U 79101Z   22139.08216885 -.00000128  00000-0  00000-0 0  9997
2 49955   8.3478 257.5525 4800639 142.5227 263.4006  1.81791330 51536
Source of the keplerian elements: AFSPC